Theta_e
304 310 311 311 312 315 317 319 319 320 322 322 323 322 321 322 322 321 322 322 322 324 324 324 329 336 339 339 338 336 339 339 334 338 336 336 335 335 335 337 338 338 337 336
309 312 311 313 313 316 318 319 319 320 320 319 320 321 320 319 320 321 321 322 322 322 323 324 324 327 335 338 340 339 338 337 337 336 336 335 335 335 335 335 335 338 337 337
310 313 313 315 316 317 317 317 319 320 321 320 320 321 320 318 321 321 321 321 321 322 322 323 323 323 326 333 335 336 337 336 334 337 337 338 335 336 336 335 336 336 336 337
310 311 315 315 316 315 316 316 318 321 320 321 318 321 318 317 316 317 320 321 321 322 321 321 322 322 323 326 333 335 334 334 334 335 336 334 332 331 331 329 327 330 333 332
313 313 315 317 317 316 317 317 318 320 319 319 318 317 315 314 315 315 315 320 320 320 320 320 321 322 323 323 326 332 334 333 332 332 331 332 330 330 329 330 329 330 328 325
311 311 312 314 316 315 316 317 318 317 315 313 317 315 313 314 316 315 315 319 319 319 319 320 320 321 322 322 322 325 330 332 332 331 331 331 329 330 331 329 326 329 324 316
310 311 310 314 314 315 317 313 316 317 312 315 313 315 314 314 313 313 313 317 319 319 319 319 320 320 320 320 321 321 323 328 328 330 332 332 330 329 328 327 323 316 315 314
309 308 313 312 316 316 316 314 311 316 314 313 313 314 313 312 313 315 315 315 315 316 318 319 320 320 321 320 318 317 318 317 316 318 318 319 320 319 317 315 314 314 313 313
310 314 313 314 314 314 314 310 312 313 311 310 312 313 311 311 311 312 313 314 314 314 316 318 319 320 321 320 318 317 316 315 315 315 315 315 315 315 314 314 314 313 312 312
311 315 312 315 314 315 315 313 311 307 312 314 313 314 311 310 309 309 309 311 312 314 314 317 319 319 319 320 317 316 315 315 315 315 315 314 314 314 313 313 312 312 312 312
312 310 313 314 314 316 315 315 315 312 311 314 312 309 307 309 310 310 311 313 312 311 312 313 315 319 319 318 317 316 315 314 314 314 314 314 313 312 312 312 312 312 311 312
311 310 314 314 314 314 315 316 315 310 313 308 309 310 310 309 309 313 314 313 313 312 312 312 313 314 317 317 317 316 315 314 314 314 314 314 313 313 312 312 312 311 311 311
311 309 307 312 311 312 314 314 315 312 309 310 310 309 308 309 311 313 314 313 314 313 313 312 312 313 314 315 316 316 315 315 314 313 315 315 316 317 317 316 315 313 311 310
310 311 308 306 310 311 313 313 314 311 308 313 311 312 311 308 308 310 313 312 313 314 314 313 313 313 314 315 315 315 314 314 313 312 314 318 317 315 312 312 311 311 310 309
310 310 304 310 310 311 312 313 312 308 311 311 313 312 312 309 309 311 312 313 312 312 314 314 314 313 314 313 313 313 313 313 312 312 311 312 311 311 312 312 311 309 309 308
309 308 306 306 310 310 311 310 310 311 312 312 312 312 310 312 313 312 311 311 312 312 313 313 313 313 313 314 312 312 312 312 312 311 312 312 312 312 312 311 310 308 307 307
310 309 306 306 309 308 308 308 310 310 310 311 313 313 311 310 310 311 311 311 311 311 312 312 313 314 313 314 314 313 313 312 312 311 311 311 311 311 311 309 309 307 306 306
310 310 309 305 306 305 307 308 308 309 309 309 310 310 310 310 311 311 311 310 310 310 311 311 312 313 314 314 314 314 313 312 312 311 311 311 311 310 309 308 307 306 305 305
306 307 309 307 306 306 308 308 309 308 308 307 306 310 310 310 311 310 310 310 309 309 309 310 311 311 313 315 315 314 314 313 312 312 312 311 311 310 309 307 306 306 305 304
307 305 306 306 309 310 309 308 308 307 306 309 310 309 310 311 308 305 309 309 308 309 308 309 309 310 310 312 315 315 314 313 312 312 311 311 309 308 307 306 305 305 303 302
307 307 305 307 306 308 307 308 308 307 305 309 311 311 311 309 309 311 309 308 310 309 309 308 309 310 310 310 314 315 314 314 312 310 310 309 309 307 306 305 305 303 302 300
307 305 307 306 307 307 307 307 307 305 309 310 310 310 310 311 311 310 309 310 309 309 308 307 309 312 313 314 314 314 313 312 310 309 309 308 307 306 305 304 303 302 300 299
306 305 305 306 307 307 308 307 308 308 307 308 309 308 309 308 309 310 310 310 310 309 309 307 308 310 311 311 311 311 311 310 309 309 308 307 306 305 304 303 302 301 300 299
305 306 305 306 306 305 308 308 308 308 307 307 308 308 307 307 307 310 310 310 309 309 308 308 308 308 308 309 309 308 309 308 308 307 306 306 305 304 304 303 302 301 300 299
305 305 305 305 305 307 308 307 307 306 307 308 307 307 308 308 308 310 310 309 309 309 309 309 310 309 308 308 307 307 307 307 306 306 306 305 304 305 304 303 302 301 299 298
306 307 306 308 307 305 306 306 307 307 306 306 305 305 307 308 309 309 310 309 308 309 310 310 310 310 310 309 309 308 307 306 306 305 305 305 305 305 304 303 303 302 300 298
Wind_Speed
4 3 6 8 5 10 7 13 16 5 11 11 10 6 7 8 9 10 11 11 8 12 15 12 16 18 17 20 19 19 21 16 16 30 25 21 22 19 18 16 14 12 11 11
4 2 4 5 11 9 13 10 8 6 15 8 8 7 11 10 9 17 20 18 21 17 16 17 13 17 21 20 22 21 20 19 19 22 21 21 22 21 17 14 14 16 17 15
3 4 4 8 5 7 2 8 5 9 6 6 11 8 16 8 20 23 24 28 30 28 19 23 20 14 16 23 24 25 23 21 21 23 24 23 21 20 21 19 20 20 18 19
3 5 6 6 3 5 6 9 11 7 7 2 5 3 12 14 11 8 25 25 23 25 27 26 23 20 17 19 25 27 26 26 25 26 26 23 23 22 19 18 19 20 22 20
6 9 8 9 2 6 2 15 17 11 5 7 8 2 6 10 9 11 18 30 28 24 27 27 30 26 21 20 23 26 29 29 26 27 26 25 24 23 22 22 22 22 20 18
7 7 4 2 4 6 5 5 9 4 2 2 5 5 5 5 16 7 9 28 26 25 25 25 21 30 28 23 23 24 27 27 27 28 28 27 25 25 24 22 21 20 20 19
1 3 4 2 4 9 3 4 2 3 3 4 3 4 7 3 5 8 9 24 30 29 27 23 23 28 31 28 26 26 27 26 24 24 26 25 24 23 21 20 20 20 19 19
5 6 8 8 4 4 7 2 4 4 3 3 1 5 5 6 7 9 8 9 8 6 22 27 25 26 32 29 25 24 23 22 22 23 22 22 21 20 19 18 17 17 18 18
4 3 5 3 3 3 4 3 4 4 3 4 3 5 6 3 4 4 4 2 4 5 5 21 27 24 27 30 27 25 24 23 23 23 21 20 19 18 18 17 16 17 17 17
3 4 4 4 5 2 2 3 4 3 2 3 3 3 4 5 5 4 4 2 3 2 1 3 19 23 24 28 27 25 24 23 22 21 21 19 17 16 16 16 14 15 15 15
2 4 2 2 2 2 4 3 2 2 4 3 1 5 5 8 7 7 5 5 2 2 3 4 8 19 24 24 24 25 24 24 23 20 20 16 16 15 12 13 13 13 13 14
2 4 3 1 2 1 0 1 1 3 3 1 3 4 2 7 8 12 8 5 5 3 3 7 10 13 20 23 24 24 24 22 21 20 16 14 14 11 11 12 14 14 15 16
2 1 3 3 5 3 3 4 3 2 3 2 4 4 2 5 7 9 10 7 4 2 2 4 9 12 18 23 23 24 24 25 25 24 22 18 21 26 28 24 22 20 20 18
2 2 5 5 4 4 4 5 5 4 3 4 5 4 3 5 6 9 13 7 7 9 6 6 7 11 18 21 22 23 24 24 24 25 24 25 27 25 20 15 16 16 16 17
3 2 4 2 3 3 2 3 6 6 7 5 8 10 13 6 1 4 12 14 12 9 12 10 9 10 13 19 21 21 22 22 22 22 19 17 17 15 15 14 13 14 15 15
2 3 4 4 4 4 3 6 7 7 6 8 10 12 9 18 26 15 10 7 15 15 15 15 16 16 17 19 22 22 22 22 21 20 18 17 17 15 13 14 14 14 14 15
3 3 2 4 3 4 6 7 9 4 6 6 9 16 2 6 10 11 10 10 10 11 13 15 16 20 22 21 22 24 23 22 22 20 19 18 16 15 14 14 14 14 14 15
3 5 4 3 2 0 6 0 1 7 7 8 8 9 7 4 2 4 10 13 16 16 19 18 16 15 25 20 21 20 21 22 22 22 21 19 17 15 15 15 14 14 14 13
2 2 1 2 2 6 2 2 1 2 5 4 2 3 5 5 7 8 6 8 14 17 18 20 20 16 16 25 24 24 23 23 23 23 21 18 16 15 15 16 15 15 14 14
1 5 3 2 1 3 2 3 1 2 4 4 5 5 4 8 4 4 13 20 20 17 16 15 15 19 18 22 30 28 26 24 25 23 20 17 16 15 16 15 15 14 14 14
1 1 4 2 2 6 5 2 3 1 5 3 1 3 5 3 7 14 16 17 17 15 14 13 14 16 20 19 31 32 27 23 20 19 18 17 15 15 15 15 14 12 13 12
5 4 3 2 2 5 4 2 1 4 4 7 8 9 10 11 13 13 12 13 12 10 8 6 7 7 8 15 27 26 24 18 18 18 17 15 13 15 15 14 12 12 11 10
0 5 3 6 5 4 5 9 10 13 21 20 18 19 18 17 18 14 13 11 9 6 5 4 4 6 9 12 15 17 18 18 17 15 14 13 14 14 13 12 12 12 10 11
5 6 1 3 2 7 8 10 14 16 17 21 19 16 19 20 20 16 14 11 7 3 1 1 1 4 7 9 11 11 11 11 12 13 14 14 15 14 13 12 11 11 11 13
3 4 4 4 6 18 5 27 19 24 25 24 26 24 24 25 23 17 16 14 9 6 3 2 1 1 2 4 5 7 8 9 11 12 13 14 14 14 13 12 9 11 11 12
0 1 1 3 8 11 20 20 18 19 17 21 22 25 22 18 22 17 16 15 13 10 9 9 5 4 2 4 5 6 7 8 10 12 13 14 14 13 13 13 11 10 10 12
Wind_Direction
276 118 186 216 269 291 114 153 176 132 160 155 196 239 251 204 192 183 189 218 212 202 183 195 203 199 197 195 204 210 209 203 215 203 208 198 195 208 203 201 206 223 231 240
202 114 173 197 239 252 154 143 156 138 154 154 169 262 267 222 228 216 218 217 225 241 213 202 201 207 207 201 199 213 211 206 192 203 212 210 205 206 205 213 205 214 224 231
102 88 223 186 211 181 122 165 138 160 113 343 162 214 244 235 224 226 227 229 234 230 221 209 202 212 205 213 210 212 213 210 210 206 203 213 213 208 207 213 224 223 232 232
67 38 114 121 100 125 160 148 115 152 135 160 234 220 227 224 214 214 225 226 231 234 240 228 221 211 209 217 214 211 211 207 209 214 214 210 222 214 210 215 227 240 238 245
58 37 56 78 107 212 159 149 140 191 145 152 191 155 256 178 219 222 218 221 225 234 236 235 222 227 222 216 220 216 214 216 213 219 220 217 217 218 220 218 227 236 243 250
52 44 44 256 285 88 67 91 130 135 153 59 203 139 284 174 206 223 223 225 226 225 232 239 232 230 221 220 220 221 218 218 215 217 218 215 220 222 223 223 228 235 244 252
164 129 293 12 62 81 78 68 91 33 30 191 232 125 248 294 167 196 210 227 229 232 230 229 234 218 214 212 215 223 224 219 217 217 216 219 222 222 223 225 229 236 246 257
53 5 2 342 19 99 216 70 133 152 165 231 19 197 244 237 180 139 142 152 159 208 231 228 228 221 216 220 218 214 217 216 216 217 217 219 221 222 223 226 235 248 259 267
111 24 310 25 322 6 316 64 190 107 49 75 240 290 324 125 130 135 149 150 269 254 249 226 226 221 220 219 221 221 215 211 211 214 212 215 220 222 226 232 242 254 262 265
131 97 337 341 336 48 92 250 40 13 103 167 270 252 228 125 114 117 64 28 278 279 297 233 216 221 224 223 219 215 217 213 212 210 215 210 214 219 228 235 245 253 257 258
352 94 303 13 349 35 15 31 13 130 137 154 176 276 231 167 148 122 92 67 44 263 252 226 222 217 215 217 220 220 215 212 207 213 217 207 220 227 232 246 247 255 260 272
21 112 128 175 216 204 234 277 113 119 271 26 126 275 251 136 140 130 136 126 90 83 234 250 250 229 210 219 221 219 219 217 220 213 209 219 232 246 271 272 271 269 277 277
341 95 78 22 358 310 218 223 218 112 60 219 131 260 236 140 134 158 177 197 197 200 293 247 232 235 225 225 227 224 220 218 216 206 200 215 257 273 269 263 272 279 280 277
39 87 138 173 205 152 200 207 200 141 120 224 212 259 238 211 202 223 225 199 214 217 220 247 232 229 232 235 236 233 230 227 219 216 224 235 242 240 238 247 257 265 268 271
45 48 68 308 310 81 261 234 211 185 216 175 243 229 251 240 216 317 302 280 233 224 216 231 238 248 242 240 234 232 231 226 222 222 220 215 218 229 240 252 261 265 271 276
25 3 58 321 272 219 273 271 262 253 253 243 253 260 247 284 295 293 292 268 239 230 227 238 246 244 244 238 228 221 220 219 216 217 218 219 225 236 250 256 261 268 271 274
121 125 76 288 330 10 309 241 221 224 238 217 237 255 274 268 268 281 299 300 290 276 270 268 263 252 255 241 225 216 217 218 219 219 218 224 234 245 253 260 269 271 273 275
151 157 163 224 49 12 236 67 134 214 253 247 264 266 259 257 271 313 315 304 296 294 288 277 271 272 244 242 229 227 224 222 220 219 221 228 238 249 257 264 269 273 270 273
164 136 147 141 190 283 329 321 91 101 286 323 256 49 47 12 333 323 325 335 320 306 297 290 267 268 247 232 227 225 225 227 225 225 227 233 241 252 260 268 274 279 277 281
49 98 118 66 107 268 279 270 271 67 290 321 56 36 22 10 354 267 313 315 312 303 294 273 258 253 248 234 226 222 224 225 228 226 229 234 243 251 259 265 270 267 267 274
44 12 160 212 244 284 274 218 263 0 252 272 316 298 290 229 239 294 302 301 305 306 300 269 269 259 248 243 220 218 221 227 231 226 227 234 242 252 259 265 272 266 268 276
166 148 203 131 175 283 202 298 186 241 291 312 299 291 288 283 289 293 292 302 307 313 305 281 264 254 234 213 206 211 218 225 226 227 229 234 244 250 258 269 273 274 280 263
263 181 186 174 212 252 263 244 299 303 292 293 294 297 288 288 290 288 283 290 300 314 323 287 234 202 180 182 197 216 221 225 227 228 235 241 246 252 263 271 277 277 266 253
351 27 149 21 288 8 40 14 349 340 340 334 320 316 300 286 286 276 269 265 266 278 315 13 151 187 205 212 214 217 221 224 229 234 237 243 244 250 259 267 275 275 261 252
237 5 319 273 325 337 316 323 326 324 316 311 312 303 288 292 283 267 253 248 231 197 208 183 155 136 155 191 199 204 214 227 234 241 245 249 249 257 261 263 270 278 266 254
341 81 58 278 311 314 299 313 307 302 306 308 313 313 303 289 273 261 252 237 222 210 221 228 252 250 235 249 243 242 240 240 242 241 244 251 253 258 262 261 261 269 271 256